Wind_Speed
13 13 12 12 12 12 11 10 11 11 11 11 12 13 14 14 14 14 14 15 15 16 17 16 16 16 16 15 16 16 15 14 14 14 13 13 12 11 10 9 8 8 7
13 12 11 11 11 10 10 10 11 11 12 12 12 13 14 15 15 15 15 16 16 17 17 17 17 17 17 17 17 17 17 17 17 16 16 15 15 13 13 12 10 10 9
11 10 10 10 9 9 10 9 10 10 10 11 11 12 12 14 15 15 16 16 17 17 17 18 19 19 19 19 18 18 19 19 19 19 18 18 18 17 15 14 13 12 11
9 9 9 9 8 8 9 9 9 10 11 11 11 11 11 12 14 15 16 16 17 18 18 19 19 20 20 20 20 20 20 21 21 21 20 20 20 20 18 17 16 15 14
8 8 8 7 7 8 8 9 10 11 11 11 11 11 11 11 12 13 15 16 17 18 19 19 20 20 21 21 22 22 22 22 23 23 23 22 21 22 21 20 19 18 16
8 7 7 7 7 7 8 9 10 10 10 10 10 11 11 11 12 13 13 14 15 17 18 19 20 21 21 21 22 23 24 23 24 24 25 25 24 24 24 23 22 20 19
6 6 6 6 6 7 7 8 9 10 10 10 9 10 11 11 12 13 14 15 15 16 17 18 19 21 22 23 23 24 24 25 26 26 26 27 27 26 26 26 25 23 22
5 5 6 6 6 7 8 8 9 9 10 10 10 11 11 12 13 14 14 15 16 17 17 18 19 20 22 23 23 23 24 25 25 26 28 28 28 29 29 29 28 26 25
3 4 5 5 6 7 8 9 9 9 10 11 11 12 12 13 13 14 15 16 16 17 18 20 20 21 22 23 24 24 24 25 26 26 27 28 30 29 30 32 31 30 28
3 4 5 5 6 7 8 9 10 10 11 11 12 12 13 14 14 14 15 16 17 18 19 19 21 22 23 23 24 25 25 25 26 27 27 28 30 30 31 32 33 33 31
3 4 5 6 7 8 9 10 11 11 12 12 12 13 14 15 15 15 16 17 18 18 19 20 21 22 24 25 25 26 26 27 27 27 28 28 30 31 31 33 33 33 33
3 4 5 6 7 9 10 10 11 12 12 13 13 14 14 15 16 17 18 18 19 20 21 21 22 24 24 25 26 27 27 28 29 29 30 30 30 31 32 33 34 34 34
3 4 5 7 8 9 10 11 12 12 13 13 14 14 15 15 16 17 18 19 20 20 21 22 23 24 25 26 27 28 28 29 30 31 31 32 32 32 32 34 35 36 35
3 4 6 7 8 10 11 12 12 13 14 14 15 15 16 17 17 18 19 19 20 21 22 22 23 24 25 26 27 28 29 30 31 32 33 34 34 34 34 34 36 37 38
4 5 6 7 9 10 11 12 13 14 14 15 16 16 17 17 18 19 19 20 20 21 22 23 23 24 25 26 28 29 30 30 31 32 33 34 35 36 36 36 36 37 38
5 6 7 8 10 11 12 13 14 15 15 16 17 18 18 19 19 20 20 21 22 22 23 23 24 24 25 26 27 28 29 30 31 32 34 35 36 37 37 38 39 39 39
6 7 9 10 12 13 14 14 15 16 17 17 18 19 20 20 20 21 22 22 23 23 23 24 25 25 26 26 26 27 28 29 31 32 33 34 36 37 39 39 40 40 40
9 10 11 12 14 15 15 16 17 18 18 19 20 20 21 21 21 22 23 23 24 24 25 25 26 27 27 27 27 28 28 29 30 31 33 34 35 36 38 40 41 42 43
11 13 14 15 16 17 18 18 19 20 20 21 21 22 22 22 23 23 24 24 25 26 26 27 27 28 28 28 28 29 29 30 30 31 32 34 35 36 38 39 41 42 43
14 15 16 17 18 19 20 21 21 22 22 22 23 23 23 24 25 25 26 26 26 27 28 28 28 29 29 29 29 30 30 31 32 33 33 34 35 37 38 39 40 42 43
16 18 19 20 21 21 22 22 23 23 23 24 24 25 25 26 26 27 27 28 28 28 29 29 30 30 30 31 31 31 31 32 32 34 34 35 35 36 38 39 40 41 43
19 20 21 21 22 23 23 24 24 24 25 25 26 26 27 27 28 29 29 29 30 30 30 31 31 32 32 32 32 33 33 33 33 34 35 35 36 36 37 39 40 41 42
21 22 23 23 24 24 25 25 26 26 26 27 27 28 28 29 29 30 30 31 31 32 32 33 33 33 34 34 34 34 34 34 34 34 35 35 37 37 38 40 40 41 42
23 23 24 25 25 25 26 27 27 28 28 28 29 29 30 30 31 31 32 32 32 33 34 34 34 34 35 35 35 35 35 35 34 35 36 36 36 37 38 39 41 42 42
24 25 25 25 26 27 28 28 29 29 29 29 30 31 31 32 33 33 34 34 34 35 35 35 35 35 35 36 36 37 37 36 35 35 37 37 36 37 37 38 39 41 41
26 26 26 27 27 28 29 30 30 30 30 31 31 32 33 34 34 35 35 35 35 36 36 36 36 37 37 37 37 37 37 37 36 35 36 37 36 36 36 36 38 39 40
Wind_Direction
276 281 284 283 282 285 286 282 282 282 276 268 266 262 261 261 259 260 258 258 254 253 251 252 251 250 250 252 249 246 243 240 237 234 233 231 227 225 224 224 224 223 219
281 283 288 288 286 286 285 282 283 285 282 276 273 265 261 261 263 262 259 259 257 254 252 252 253 253 250 251 250 246 246 245 242 238 237 235 232 230 229 228 228 228 227
288 290 289 287 287 283 285 283 285 287 288 284 279 274 269 263 261 264 263 260 258 256 254 252 253 255 253 251 251 249 248 247 246 243 240 237 235 234 232 231 231 231 231
290 291 287 286 286 284 285 284 285 286 285 284 283 282 277 271 267 265 265 263 260 258 258 256 255 255 254 252 251 252 251 249 247 245 243 240 238 235 235 234 233 234 234
288 291 292 294 295 292 289 290 291 293 288 287 285 284 281 275 271 269 268 267 262 261 260 259 257 255 254 254 253 252 252 252 249 245 244 243 241 238 236 235 235 236 236
286 291 299 301 304 303 302 301 303 303 299 297 294 288 285 282 277 275 275 272 267 264 263 261 257 255 255 258 257 255 254 252 250 247 245 244 243 241 238 237 237 237 237
285 298 301 308 312 314 315 313 312 311 310 308 302 296 292 287 284 283 281 279 274 269 268 266 263 259 257 259 260 258 256 254 253 251 249 246 243 242 240 239 238 238 238
298 308 311 312 316 322 322 320 319 318 315 312 305 301 297 294 291 288 285 283 279 274 272 271 267 266 264 263 262 260 257 256 254 252 251 248 246 245 242 240 240 239 239
303 312 319 323 326 328 327 326 324 323 321 316 310 305 301 298 296 294 291 287 285 281 277 275 273 271 270 268 265 263 262 259 255 253 252 250 249 247 245 242 240 241 241
309 324 328 332 335 334 333 333 330 327 323 320 316 312 309 306 303 299 295 292 289 286 283 280 277 274 272 271 268 265 264 263 260 255 253 254 252 250 249 245 241 241 242
308 321 330 336 337 336 335 333 331 329 325 323 320 316 313 311 309 305 300 296 292 290 287 284 281 278 276 274 272 268 266 265 263 259 256 255 253 251 250 247 243 242 242
310 322 333 336 337 337 337 337 335 333 330 327 325 322 318 314 312 309 305 301 296 292 289 287 283 281 278 276 274 270 268 267 264 262 258 256 254 251 250 249 245 244 244
312 322 331 334 336 338 339 338 336 334 332 329 326 324 321 318 314 311 308 305 301 298 294 290 287 284 281 278 275 272 269 268 266 264 263 259 257 255 252 250 247 246 245
317 329 331 333 336 337 337 336 335 333 332 330 327 324 321 319 316 313 311 308 305 302 299 295 292 289 286 282 279 275 271 268 266 264 263 261 259 257 254 252 250 248 247
318 327 329 332 335 337 337 335 334 333 332 330 328 325 324 321 317 316 313 311 309 306 303 301 298 294 291 287 282 278 274 271 269 266 264 262 260 258 257 253 250 249 248
312 321 327 329 331 331 332 332 331 330 329 328 327 325 324 322 319 317 315 313 311 309 306 304 302 300 296 292 286 281 277 275 272 269 266 264 261 259 257 255 252 250 248
307 314 320 323 324 324 325 326 327 327 326 325 324 323 322 321 319 317 316 315 313 311 308 306 304 302 300 296 290 284 280 278 275 272 269 266 263 261 258 256 254 252 250
302 310 314 318 318 318 319 321 323 323 323 323 322 321 321 320 319 318 316 315 314 312 310 308 306 304 301 298 294 288 283 280 277 274 271 268 265 263 260 258 255 253 251
298 305 309 311 313 314 315 317 319 320 320 320 320 319 318 318 317 316 315 314 312 311 310 309 307 305 302 299 295 291 286 282 279 275 273 270 267 265 262 259 256 254 252
298 302 305 307 309 311 312 313 315 317 317 317 317 317 316 316 315 314 314 313 312 311 310 309 307 305 303 300 297 293 289 285 282 278 275 272 269 266 264 261 258 255 252
297 300 302 305 307 309 310 312 313 314 313 314 315 315 315 314 313 313 312 312 311 310 309 308 307 305 302 300 298 295 292 288 284 281 277 274 271 267 264 262 260 258 255
295 298 300 302 304 306 307 309 311 312 312 313 313 314 314 313 313 313 312 312 311 309 309 307 306 304 302 300 298 297 294 291 287 284 280 276 273 270 266 263 261 259 256
294 298 300 300 302 304 306 307 309 310 311 312 312 312 313 313 312 311 311 311 310 309 308 307 306 304 302 300 299 297 295 293 290 286 283 280 276 272 268 264 261 259 257
293 297 299 299 301 303 305 306 307 308 309 310 311 311 312 313 312 312 311 310 309 308 308 307 306 305 303 300 298 297 295 293 291 289 286 283 279 274 270 266 262 259 257
291 295 298 298 299 302 303 304 305 306 307 308 309 310 311 311 312 311 311 310 309 308 308 307 306 305 304 301 299 297 296 293 291 290 288 285 281 276 271 266 263 259 256
291 293 296 297 299 300 301 303 304 305 306 307 308 309 309 310 311 311 310 310 309 308 308 307 307 306 304 302 299 297 296 294 292 289 287 285 282 277 272 267 263 259 256
Height
5882 5881 5881 5881 5881 5881 5881 5881 5882 5882 5881 5882 5882 5883 5883 5884 5885 5886 5886 5886 5888 5889 5891 5892 5894 5895 5897 5898 5900 5901 5903 5904 5905 5907 5908 5910 5911 5912 5914 5915 5916 5917 5918
5879 5879 5879 5879 5879 5879 5879 5879 5879 5879 5879 5879 5880 5880 5881 5881 5882 5883 5884 5884 5885 5886 5888 5889 5891 5892 5894 5895 5897 5898 5900 5901 5903 5904 5906 5907 5909 5910 5912 5913 5915 5916 5917
5877 5877 5877 5877 5876 5876 5876 5877 5877 5877 5877 5877 5877 5877 5877 5878 5879 5879 5880 5881 5882 5883 5884 5886 5887 5889 5890 5892 5893 5895 5896 5898 5900 5901 5903 5904 5906 5908 5909 5911 5913 5914 5915
5875 5875 5875 5875 5875 5875 5874 5875 5875 5875 5875 5875 5874 5874 5875 5875 5875 5876 5877 5878 5879 5880 5881 5882 5884 5885 5886 5888 5889 5891 5892 5894 5896 5898 5899 5901 5903 5905 5907 5908 5910 5912 5913
5874 5874 5874 5873 5873 5873 5873 5873 5873 5872 5872 5872 5872 5872 5872 5872 5873 5873 5874 5874 5875 5876 5877 5878 5879 5881 5882 5884 5885 5886 5888 5890 5891 5893 5895 5897 5899 5901 5903 5905 5907 5909 5910
5872 5872 5872 5872 5872 5872 5871 5871 5870 5870 5870 5870 5870 5870 5870 5870 5870 5871 5871 5871 5871 5872 5873 5874 5875 5876 5878 5879 5880 5882 5883 5885 5886 5888 5890 5892 5895 5897 5899 5901 5903 5905 5907
5870 5871 5871 5871 5871 5871 5870 5869 5869 5869 5868 5868 5868 5868 5868 5868 5868 5868 5868 5868 5868 5868 5869 5869 5870 5871 5872 5874 5875 5876 5878 5879 5881 5883 5885 5887 5889 5892 5894 5896 5899 5901 5903
5869 5870 5870 5870 5870 5869 5869 5868 5868 5867 5867 5866 5866 5866 5866 5866 5865 5865 5865 5865 5865 5865 5865 5865 5866 5867 5867 5869 5870 5871 5872 5873 5875 5877 5879 5881 5883 5886 5888 5891 5893 5896 5898
5868 5869 5869 5869 5869 5868 5868 5867 5866 5866 5865 5864 5864 5864 5863 5863 5862 5862 5861 5861 5861 5861 5861 5861 5862 5862 5863 5863 5864 5865 5866 5867 5869 5871 5873 5875 5877 5880 5882 5885 5887 5890 5893
5868 5868 5868 5868 5868 5867 5867 5866 5865 5864 5863 5863 5862 5861 5860 5859 5859 5859 5858 5857 5857 5857 5857 5857 5857 5857 5858 5858 5859 5860 5861 5862 5863 5865 5866 5868 5871 5873 5875 5878 5881 5884 5886
5867 5867 5867 5867 5867 5866 5865 5864 5864 5863 5862 5861 5860 5859 5857 5856 5856 5855 5854 5854 5853 5852 5852 5852 5852 5852 5852 5853 5853 5854 5855 5856 5857 5858 5860 5861 5863 5866 5868 5871 5873 5877 5879
5866 5866 5866 5866 5866 5865 5864 5863 5862 5861 5860 5859 5857 5856 5855 5854 5853 5852 5851 5850 5849 5848 5848 5847 5846 5846 5846 5847 5847 5848 5848 5849 5850 5851 5853 5854 5856 5858 5861 5863 5866 5869 5872
5865 5865 5865 5865 5865 5864 5863 5862 5861 5859 5858 5857 5855 5854 5853 5851 5850 5848 5847 5846 5844 5843 5842 5842 5841 5840 5840 5840 5840 5841 5841 5842 5843 5844 5845 5847 5849 5851 5853 5855 5858 5861 5864
5864 5864 5864 5864 5863 5862 5861 5860 5859 5858 5856 5854 5853 5851 5850 5848 5846 5845 5843 5842 5840 5839 5837 5836 5835 5834 5833 5833 5833 5833 5834 5834 5835 5836 5837 5839 5840 5842 5845 5847 5850 5852 5856
5863 5863 5863 5862 5862 5861 5860 5858 5857 5855 5854 5852 5850 5848 5847 5845 5843 5841 5839 5837 5836 5834 5832 5830 5829 5828 5827 5826 5825 5825 5825 5826 5826 5827 5828 5830 5832 5834 5835 5838 5840 5843 5846
5861 5861 5861 5860 5860 5859 5858 5856 5855 5853 5851 5850 5848 5846 5843 5841 5839 5837 5835 5833 5831 5829 5827 5825 5823 5822 5820 5819 5818 5817 5817 5817 5817 5818 5819 5820 5822 5824 5826 5828 5830 5833 5836
5860 5859 5859 5859 5858 5857 5855 5854 5852 5851 5849 5847 5844 5842 5840 5838 5835 5833 5830 5828 5826 5824 5822 5819 5817 5815 5814 5812 5810 5809 5809 5809 5809 5809 5809 5810 5812 5813 5815 5817 5820 5822 5825
5858 5858 5857 5856 5855 5854 5853 5851 5849 5847 5845 5843 5841 5838 5836 5833 5831 5829 5826 5823 5821 5818 5816 5814 5811 5809 5807 5805 5803 5802 5801 5800 5800 5800 5800 5800 5801 5803 5804 5806 5809 5811 5814
5855 5855 5854 5854 5852 5851 5849 5848 5846 5844 5842 5839 5837 5834 5832 5829 5827 5824 5821 5818 5816 5813 5810 5807 5805 5802 5800 5797 5795 5794 5792 5791 5791 5790 5790 5791 5791 5792 5793 5795 5797 5800 5803
5852 5852 5851 5850 5849 5847 5846 5844 5842 5840 5837 5835 5832 5830 5827 5824 5821 5819 5816 5813 5810 5807 5804 5801 5798 5795 5792 5789 5787 5785 5784 5782 5781 5780 5780 5780 5780 5781 5782 5783 5785 5787 5790
5849 5848 5847 5846 5844 5843 5841 5839 5837 5835 5832 5830 5827 5824 5822 5819 5816 5813 5810 5806 5803 5800 5797 5794 5791 5788 5785 5782 5779 5777 5775 5773 5771 5770 5769 5769 5769 5770 5770 5771 5773 5775 5777
5844 5843 5842 5841 5840 5838 5836 5834 5832 5829 5827 5824 5822 5819 5816 5813 5809 5806 5803 5799 5796 5793 5789 5786 5783 5779 5776 5773 5770 5767 5765 5763 5761 5759 5758 5758 5757 5758 5758 5760 5761 5762 5765
5839 5838 5837 5836 5834 5832 5830 5828 5826 5823 5821 5818 5815 5812 5809 5806 5803 5800 5796 5792 5788 5784 5781 5778 5774 5770 5767 5763 5760 5757 5755 5752 5750 5748 5746 5746 5745 5745 5746 5747 5748 5750 5752
5834 5833 5831 5830 5828 5826 5824 5822 5819 5817 5814 5811 5809 5805 5802 5799 5795 5792 5788 5785 5780 5776 5772 5769 5765 5761 5757 5753 5750 5747 5744 5742 5740 5737 5734 5734 5733 5733 5733 5733 5734 5736 5738
5827 5826 5824 5823 5821 5819 5817 5815 5812 5810 5807 5805 5801 5798 5795 5791 5787 5784 5780 5776 5772 5767 5763 5759 5755 5751 5747 5743 5739 5736 5733 5731 5729 5726 5723 5721 5721 5720 5720 5720 5721 5722 5725
5820 5819 5818 5816 5814 5812 5810 5807 5805 5802 5800 5797 5794 5790 5787 5783 5779 5775 5771 5767 5763 5758 5754 5750 5745 5741 5737 5733 5729 5725 5722 5719 5717 5715 5712 5709 5708 5707 5707 5707 5708 5709 5711